This is the latest recevied weather packets stored in our database for station/object SR8WXL-13. If no packets are shown the sender has not sent any weather packets the latest 10 day(s).
| Time | Temp. | Humidity | Pressure | Rain* | Wind** | Luminosity | Snow |
|---|---|---|---|---|---|---|---|
| 1788297234 | 12.22° C | 92% | 1035 hPa | 0 mm | - | - | - |
| 1788296444 | 12.22° C | 91% | 1035.1 hPa | 0 mm | - | - | - |
| 1788295678 | 12.22° C | 92% | 1035.1 hPa | 0 mm | - | - | - |
| 1788294819 | 12.22° C | 91% | 1035.1 hPa | 0 mm | - | - | - |
| 1788293993 | 12.78° C | 90% | 1034.8 hPa | 0 mm | - | - | - |
| 1788293144 | 12.78° C | 90% | 1034.7 hPa | 0 mm | - | - | - |
| 1788292278 | 12.78° C | 89% | 1034.8 hPa | 0 mm | - | - | - |
| 1788291554 | 12.78° C | 87% | 1034.6 hPa | 0 mm | - | - | - |
| 1788290704 | 13.89° C | 86% | 1034.7 hPa | 0 mm | - | - | - |
| 1788289953 | 15° C | 84% | 1034.7 hPa | 0 mm | - | - | - |
| 1788289059 | 15° C | 82% | 1034.6 hPa | 0 mm | - | - | - |
| 1788288318 | 16.11° C | 80% | 1034.5 hPa | 0 mm | - | - | - |
| 1788287459 | 17.22° C | 77% | 1034.6 hPa | 0 mm | - | - | - |
| 1788286738 | 17.22° C | 74% | 1034.4 hPa | 0 mm | - | - | - |
| 1788286010 | 17.78° C | 70% | 1034.4 hPa | 0 mm | - | - | - |
| 1788285278 | 17.78° C | 65% | 1034.3 hPa | 0 mm | - | - | - |
| 1788284529 | 17.78° C | 64% | 1034.1 hPa | 0 mm | - | - | - |
| 1788283723 | 18.89° C | 64% | 1034 hPa | 0 mm | - | - | - |
| 1788282883 | 18.89° C | 62% | 1033.8 hPa | 0 mm | - | - | - |
| 1788281994 | 20° C | 60% | 1033.7 hPa | 0 mm | - | - | - |
| 1788281218 | 20° C | 58% | 1033.3 hPa | 0 mm | - | - | - |
| 1788280469 | 21.11° C | 56% | 1033.7 hPa | 0 mm | - | - | - |
| 1788279692 | 21.11° C | 55% | 1033.5 hPa | 0 mm | - | - | - |
| 1788278834 | 22.22° C | 55% | 1033.2 hPa | 0 mm | - | - | - |
| 1788278064 | 22.22° C | 53% | 1033.1 hPa | 0 mm | - | - | - |
* Rain latest hour (hover to see other rain measurements)
** Current wind speed in m/s (hover to see current wind gust speed)